COSMOS 1275 DEB, 42164

Orbit data source: Space-Track

COSMOS 1275 DEB, 42164 is space debris in LEO originally from a launch on Thu, 04 Jun 1981 UTC launched from the Plesetsk Missile And Space Complex (PKMTR). Debris objects in space refer to the collection of defunct objects orbiting the Earth. Examples of debris include non-operational satellites, rocket bodies, and fragments generated from explosions, collisions, or faulty payload assembly.

Loading next visibility...
Identifier
42164, 1981-053SC
Orbit
LEO
Country
Flag of CISCIS
Related business
Manufacturer
Unknown
Mission
Spacecraft
Bus & Motor
Unknown
Mass
Unknown
Launch date (UTC)
1981-06-04 (45 years ago)
Launch vehicle
Unknown
Launch site
Plesetsk Missile And Space Complex (PKMTR)
Object type
Payload
Rocket body
Debris
Shape & HBR
Unknown shape, 0.1 m
Radar Cross Section
Small (<0.1 m²)

Expand to show TLE details & history
Last TLE update: 3 days ago

TLE from 3 days ago
0 COSMOS 1275 DEB
1 42164U 81053SC  26252.75212733  .00006203  00000-0  12458-2 0  9994
2 42164  82.9140 265.6613 0021446 104.7856 255.5726 14.61397409667937
Epoch: 2026-09-09T18:03Z
TLE epoch observation values (Epoch: 2026-09-09T18:03:03.801Z)
Latitude
-0.00003°
Longitude
6.09578°
Altitude
695.492 km
Speed
7.506 km/s
True Right ascension
17h 42m 38s
True Declination
0° 00' 00"
Sunlit
Object was in daylight at epoch
Visualization orbit readout
Latitude
Unknown
Longitude
Unknown
Altitude
Unknown
Speed
Unknown
Apparent Right ascension
Unknown
Apparent Declination
Unknown
Sunlit
N/A
Visualization observer readout
Local Sidereal Time
22:34:20
Azimuth
Unknown
Elevation
Unknown
Doppler factor
Unknown
Orbital elements
Apogee altitude
700.846 km
Perigee altitude
670.548 km
Semi-major axis
7,063.834 km
Eccentricity
0.00214
Inclination
82.914°
RAAN
265.6613°
Arg. of periapsis
104.7856°
True anomaly
255.33476°
Mean anomaly
255.5726°
Eccentric anomaly
255.45366°
Mean motion
3.6558 °/min
Orbital period
98.47 mins
BSTAR
0.0012458
Loading maneuver chart data...
Computing Atmospheric mass density...
Loading historical data...
Loading historical data...
Loading historical data...
Loading historical data...
Loading historical data...
Loading historical data...
Loading historical data...

Documentation

Showing up to 5 results
|